sat.trackr.live / text

‹ back to catalog

INTELSAT 902 (IS-902)

NORAD 26900 · 2001-039A

PAYLOAD ACTIVE UNKNOWN

§ Identity

Operator
Country
ITSO
Launch date
2001-08-30
Launch site
FRGUI
Launch vehicle
Mass (kg)
RCS (m²)
14.16

Purposes: comms

External: N2YO · Heavens-Above · Gunter

§ Orbital elements

Epoch: 2026-05-25T03:38:44.387232Z

Period
1,436.12 min
Inclination
6.0603°
Eccentricity
0.0004503
Mean motion
1.00269882 rev/d
Perigee alt
35,768.1 km
Apogee alt
35,806.1 km
Semi-major
42,165.3 km
B*
0.0000e+0
RAAN
72.0583°
Arg perigee
347.7769°
Mean anomaly
187.4855°
Rev number
9,046

§ Raw data

INTELSAT 902 (IS-902)1 26900U 01039A   26145.15190263 -.00000285  00000+0  00000+0 0  99992 26900   6.0603  72.0583 0004503 347.7769 187.4855  1.00269882 90467

JSON: /api/v1/satellites/26900 · /tle

For live sub-satellite position, see the globe view (requires WebGL).

§ Visibility from observer

Set your observer location to see the next 7 days of passes ≥ 10°. The values pass through the URL so the page stays shareable.

No JS? Fill the form by hand. The geolocation button needs JavaScript.